Regional Weather Roundup
Issued by NWS Little Rock, AR

Home | Current Version | Previous Version | Graphics & Text | Print | Product List | Glossary On
Versions: 1 2 3 4 5 6 7 8 9 10 11 12 13 14 15 16 17 18 19 20 21 22 23 24 25 26 27 28 29 30 31 32 33 34 35 36 37 38 39 40 41 42 43 44 45 46 47 48 49 50
631
ASUS44 KLZK 270305
RWRLZK

WEATHER ROUNDUP FOR ARKANSAS
NATIONAL WEATHER SERVICE LITTLE ROCK AR
1000 PM CDT FRI MAY 26 2017

NOTE: "FAIR" INDICATES FEW OR NO CLOUDS BELOW 12,000 FEET WITH NO
SIGNIFICANT WEATHER AND/OR OBSTRUCTIONS TO VISIBILITY.

ARZ001-003-010-029-270400-
NORTHWEST ARKANSAS

CITY           SKY/WX    TMP DP  RH WIND       PRES   REMARKS
FAYETTEVILLE   PTCLDY    76  72  87 SE3       29.82R
FORT SMITH     PTCLDY    83  71  67 CALM      29.79R HX  87
HARRISON       PTCLDY    75  71  87 S8        29.85R
BENTONVILLE    PTCLDY    79  70  73 S5        29.83R
ROGERS         CLOUDY    77  71  82 SE6       29.84R
SILOAM SPGS    MOCLDY    77  68  73 S6        29.81R
HIGHFILL       MOCLDY    78  72  81 S6        29.83R
$$

ARZ004-005-016-270400-
NORTH CENTRAL ARKANSAS

CITY           SKY/WX    TMP DP  RH WIND       PRES   REMARKS
BATESVILLE     CLOUDY    77  70  78 S8        29.87R
FLIPPIN        MOCLDY    75  66  73 CALM      29.81R
MTN HOME       CLOUDY    74  69  85 S5        29.84R
$$

ARZ040-041-270400-
WEST CENTRAL ARKANSAS

CITY           SKY/WX    TMP DP  RH WIND       PRES   REMARKS
MENA           CLOUDY    81  81 100 CALM      29.86R HX  91
MOUNT IDA      CLOUDY    78  72  81 CALM      29.83R
$$

ARZ009-017-025-026-028-270400-
NORTHEAST ARKANSAS

CITY           SKY/WX    TMP DP  RH WIND       PRES   REMARKS
JONESBORO      CLOUDY    78  69  73 SW8       29.87R
NEWPORT        PTCLDY    76  71  85 S8        29.87R
WALNUT RIDGE   CLEAR     75  66  73 S9        29.86R
BLYTHEVILLE    CLOUDY    79  70  74 SW9       29.88R
$$

ARZ022-023-033-042-044-270400-
CENTRAL ARKANSAS

CITY           SKY/WX    TMP DP  RH WIND       PRES   REMARKS
LITTLE ROCK    CLOUDY    77  73  87 S7        29.86R
N LITTLE ROCK    N/A     78  72  82 S6        29.86R
CONWAY           N/A     79  73  83 S6        29.83R
SEARCY         CLOUDY    75  73  93 S3        29.88R
HOT SPRINGS    CLOUDY    80  73  79 S3        29.86R
RUSSELLVILLE   CLOUDY    79  72  79 S5        29.82R
CLINTON        CLOUDY    75  73  94 CALM      29.86R FOG
$$

ARZ036-270400-
EAST ARKANSAS

CITY           SKY/WX    TMP DP  RH WIND       PRES   REMARKS
WEST MEMPHIS   CLOUDY    79  70  74 S8        29.88R
$$

ARZ050-053-066-070-073-270400-
SOUTHWEST ARKANSAS

CITY           SKY/WX    TMP DP  RH WIND       PRES   REMARKS
ARKADELPHIA    CLOUDY    79  74  84 S7        29.85R
CAMDEN         MOCLDY    79  70  73 S5        29.87R
TEXARKANA      CLOUDY    80  74  81 S7        29.84R HX  85
EL DORADO      MOCLDY    76  73  91 CALM      29.87R
DE QUEEN       CLOUDY    82  75  79 S5        29.81R HX  89
$$

ARZ056-057-069-270400-
SOUTHEAST ARKANSAS

CITY           SKY/WX    TMP DP  RH WIND       PRES   REMARKS
PINE BLUFF     CLOUDY    78  71  79 S9        29.88R
STUTTGART      CLOUDY    81  63  54 S14       29.88R
MONTICELLO     CLOUDY    78  71  79 S3        29.89R

$$






USA.gov is the U.S. government's official web portal to all federal, state and local government web resources and services.